#datetime,building,power
2023-04-29T00:01:00,pth,4.80
2023-04-29T00:02:00,pth,1.20
2023-04-29T00:04:00,pth,4.80
2023-04-29T00:06:00,pth,2.40
2023-04-29T00:07:00,pth,1.20
2023-04-29T00:09:00,pth,2.40
2023-04-29T00:11:00,pth,3.60
2023-04-29T00:13:00,pth,2.40
2023-04-29T00:14:00,pth,1.20
2023-04-29T00:16:00,pth,3.60
2023-04-29T00:17:00,pth,1.20
2023-04-29T00:19:00,pth,2.40
2023-04-29T00:20:00,pth,1.20
2023-04-29T00:22:00,pth,2.40
2023-04-29T00:23:00,pth,2.40
2023-04-29T00:25:00,pth,2.40
2023-04-29T00:26:00,pth,1.20
2023-04-29T00:28:00,pth,3.60
2023-04-29T00:30:00,pth,2.40
2023-04-29T00:31:00,pth,1.20
2023-04-29T00:33:00,pth,2.40
2023-04-29T00:35:00,pth,3.60
2023-04-29T00:37:00,pth,2.40
2023-04-29T00:39:00,pth,2.40
2023-04-29T00:41:00,pth,2.40
2023-04-29T00:43:00,pth,2.40
2023-04-29T00:45:00,pth,3.60
2023-04-29T00:46:00,pth,1.19
2023-04-29T00:48:00,pth,2.40
2023-04-29T00:49:00,pth,1.20
2023-04-29T00:50:00,pth,1.20
2023-04-29T00:52:00,pth,2.40
2023-04-29T00:54:00,pth,2.40
2023-04-29T00:56:00,pth,2.40
2023-04-29T00:57:00,pth,2.40
2023-04-29T00:59:00,pth,3.60
2023-04-29T01:01:00,pth,4.80
2023-04-29T01:03:00,pth,3.60
2023-04-29T01:04:00,pth,1.20
2023-04-29T01:06:00,pth,2.40
2023-04-29T01:08:00,pth,2.40
2023-04-29T01:10:00,pth,2.40
2023-04-29T01:12:00,pth,2.40
2023-04-29T01:13:00,pth,1.20
2023-04-29T01:15:00,pth,2.40
2023-04-29T01:17:00,pth,2.40
2023-04-29T01:20:00,pth,2.40
2023-04-29T01:22:00,pth,2.40
2023-04-29T01:23:00,pth,1.20
2023-04-29T01:25:00,pth,2.40
2023-04-29T01:27:00,pth,2.40
2023-04-29T01:30:00,pth,2.40
2023-04-29T01:32:00,pth,2.40
2023-04-29T01:33:00,pth,1.19
2023-04-29T01:35:00,pth,2.40
2023-04-29T01:37:00,pth,2.40
2023-04-29T01:38:00,pth,1.20
2023-04-29T01:39:00,pth,1.19
2023-04-29T01:41:00,pth,2.40
2023-04-29T01:42:00,pth,1.20
2023-04-29T01:44:00,pth,2.40
2023-04-29T01:47:00,pth,3.60
2023-04-29T01:48:00,pth,2.40
2023-04-29T01:50:00,pth,3.60
2023-04-29T01:52:00,pth,4.80
2023-04-29T01:53:00,pth,1.20
2023-04-29T01:55:00,pth,2.40
2023-04-29T01:56:00,pth,1.20
2023-04-29T01:58:00,pth,2.40
2023-04-29T01:59:00,pth,1.20
2023-04-29T02:01:00,pth,2.40
2023-04-29T02:02:00,pth,1.20
2023-04-29T02:03:00,pth,1.20
2023-04-29T02:05:00,pth,2.40
2023-04-29T02:07:00,pth,1.19
2023-04-29T02:09:00,pth,2.40
2023-04-29T02:11:00,pth,2.40
2023-04-29T02:13:00,pth,2.40
2023-04-29T02:15:00,pth,1.19
2023-04-29T02:16:00,pth,1.20
2023-04-29T02:18:00,pth,2.40
2023-04-29T02:20:00,pth,1.20
2023-04-29T02:22:00,pth,2.40
2023-04-29T02:24:00,pth,2.40
2023-04-29T02:26:00,pth,2.40
2023-04-29T02:28:00,pth,1.20
2023-04-29T02:30:00,pth,2.40
2023-04-29T02:32:00,pth,2.40
2023-04-29T02:33:00,pth,1.20
2023-04-29T02:35:00,pth,3.60
2023-04-29T02:36:00,pth,2.40
2023-04-29T02:38:00,pth,3.60
2023-04-29T02:39:00,pth,2.40
2023-04-29T02:41:00,pth,2.40
2023-04-29T02:42:00,pth,1.20
2023-04-29T02:43:00,pth,1.20
2023-04-29T02:45:00,pth,2.40
2023-04-29T02:46:00,pth,1.20
2023-04-29T02:48:00,pth,1.20
2023-04-29T02:50:00,pth,2.40
2023-04-29T02:52:00,pth,2.40
2023-04-29T02:53:00,pth,1.20
2023-04-29T02:55:00,pth,1.20
2023-04-29T02:56:00,pth,1.20
2023-04-29T02:58:00,pth,2.40
2023-04-29T03:00:00,pth,2.40
2023-04-29T03:01:00,pth,1.20
2023-04-29T03:02:00,pth,1.20
2023-04-29T03:04:00,pth,1.20
2023-04-29T03:05:00,pth,1.20
2023-04-29T03:07:00,pth,2.40
2023-04-29T03:08:00,pth,1.20
2023-04-29T03:10:00,pth,1.20
2023-04-29T03:11:00,pth,1.20
2023-04-29T03:13:00,pth,2.40
2023-04-29T03:14:00,pth,1.20
2023-04-29T03:16:00,pth,2.40
2023-04-29T03:18:00,pth,4.80
2023-04-29T03:20:00,pth,3.60
2023-04-29T03:22:00,pth,4.80
2023-04-29T03:24:00,pth,2.40
2023-04-29T03:26:00,pth,2.40
2023-04-29T03:28:00,pth,2.40
2023-04-29T03:30:00,pth,2.40
2023-04-29T03:31:00,pth,1.20
2023-04-29T03:33:00,pth,2.40
2023-04-29T03:35:00,pth,2.40
2023-04-29T03:37:00,pth,1.20
2023-04-29T03:39:00,pth,2.40
2023-04-29T03:41:00,pth,2.40
2023-04-29T03:43:00,pth,1.20
2023-04-29T03:45:00,pth,2.40
2023-04-29T03:47:00,pth,2.40
2023-04-29T03:49:00,pth,1.20
2023-04-29T03:51:00,pth,2.40
2023-04-29T03:53:00,pth,2.40
2023-04-29T03:54:00,pth,1.20
2023-04-29T03:56:00,pth,1.19
2023-04-29T03:57:00,pth,1.20
2023-04-29T03:58:00,pth,2.40
2023-04-29T04:00:00,pth,3.60
2023-04-29T04:01:00,pth,2.40
2023-04-29T04:02:00,pth,2.40
2023-04-29T04:04:00,pth,4.80
2023-04-29T04:06:00,pth,3.60
2023-04-29T04:08:00,pth,2.40
2023-04-29T04:10:00,pth,2.40
2023-04-29T04:11:00,pth,1.20
2023-04-29T04:12:00,pth,1.20
2023-04-29T04:14:00,pth,2.40
2023-04-29T04:16:00,pth,2.40
2023-04-29T04:18:00,pth,2.40
2023-04-29T04:20:00,pth,2.40
2023-04-29T04:22:00,pth,3.60
2023-04-29T04:23:00,pth,1.20
2023-04-29T04:24:00,pth,1.20
2023-04-29T04:26:00,pth,2.40
2023-04-29T04:28:00,pth,2.40
2023-04-29T04:29:00,pth,1.20
2023-04-29T04:31:00,pth,2.40
2023-04-29T04:33:00,pth,2.40
2023-04-29T04:34:00,pth,1.20
2023-04-29T04:36:00,pth,1.20
2023-04-29T04:37:00,pth,1.20
2023-04-29T04:38:00,pth,1.20
2023-04-29T04:40:00,pth,4.80
2023-04-29T04:42:00,pth,4.80
2023-04-29T04:44:00,pth,3.60
2023-04-29T04:45:00,pth,2.40
2023-04-29T04:47:00,pth,2.40
2023-04-29T04:49:00,pth,2.40
2023-04-29T04:50:00,pth,1.20
2023-04-29T04:52:00,pth,1.19
2023-04-29T04:53:00,pth,1.20
2023-04-29T04:54:00,pth,1.20
2023-04-29T04:56:00,pth,2.40
2023-04-29T04:58:00,pth,2.40
2023-04-29T05:00:00,pth,1.19
2023-04-29T05:01:00,pth,1.20
2023-04-29T05:03:00,pth,2.40
2023-04-29T05:04:00,pth,1.20
2023-04-29T05:06:00,pth,2.40
2023-04-29T05:08:00,pth,1.20
2023-04-29T05:10:00,pth,2.40
2023-04-29T05:11:00,pth,1.20
2023-04-29T05:13:00,pth,2.40
2023-04-29T05:14:00,pth,1.20
2023-04-29T05:16:00,pth,2.40
2023-04-29T05:18:00,pth,2.40
2023-04-29T05:20:00,pth,4.80
2023-04-29T05:21:00,pth,1.20
2023-04-29T05:23:00,pth,4.80
2023-04-29T05:25:00,pth,2.40
2023-04-29T05:27:00,pth,1.20
2023-04-29T05:28:00,pth,1.20
2023-04-29T05:29:00,pth,1.19
2023-04-29T05:31:00,pth,2.40
2023-04-29T05:33:00,pth,2.40
2023-04-29T05:34:00,pth,1.20
2023-04-29T05:35:00,pth,1.19
2023-04-29T05:38:00,pth,2.40
2023-04-29T05:39:00,pth,1.20
2023-04-29T05:40:00,pth,1.20
2023-04-29T05:42:00,pth,2.40
2023-04-29T05:44:00,pth,1.20
2023-04-29T05:46:00,pth,2.40
2023-04-29T05:47:00,pth,1.20
2023-04-29T05:50:00,pth,2.40
2023-04-29T05:52:00,pth,2.40
2023-04-29T05:54:00,pth,4.80
2023-04-29T05:56:00,pth,4.80
2023-04-29T05:58:00,pth,3.60
2023-04-29T05:59:00,pth,2.40
2023-04-29T06:01:00,pth,2.40
2023-04-29T06:03:00,pth,2.40
2023-04-29T06:05:00,pth,1.20
2023-04-29T06:07:00,pth,2.40
2023-04-29T06:08:00,pth,1.20
2023-04-29T06:09:00,pth,1.20
2023-04-29T06:10:00,pth,1.20
2023-04-29T06:12:00,pth,2.40
2023-04-29T06:15:00,pth,2.40
2023-04-29T06:17:00,pth,2.40
2023-04-29T06:19:00,pth,1.19
2023-04-29T06:21:00,pth,2.40
2023-04-29T06:22:00,pth,1.20
2023-04-29T06:24:00,pth,2.40
2023-04-29T06:26:00,pth,2.40
2023-04-29T06:27:00,pth,1.20
2023-04-29T06:29:00,pth,3.60
2023-04-29T06:31:00,pth,3.60
2023-04-29T06:32:00,pth,2.40
2023-04-29T06:34:00,pth,3.60
2023-04-29T06:35:00,pth,2.40
2023-04-29T06:37:00,pth,1.20
2023-04-29T06:39:00,pth,2.40
2023-04-29T06:42:00,pth,2.40
2023-04-29T06:44:00,pth,1.20
2023-04-29T06:45:00,pth,1.20
2023-04-29T06:47:00,pth,1.20
2023-04-29T06:49:00,pth,1.20
2023-04-29T06:51:00,pth,2.40
2023-04-29T06:52:00,pth,1.20
2023-04-29T06:54:00,pth,1.20
2023-04-29T06:56:00,pth,1.20
2023-04-29T06:58:00,pth,1.20
2023-04-29T07:00:00,pth,2.40
2023-04-29T07:02:00,pth,1.20
2023-04-29T07:04:00,pth,2.40
2023-04-29T07:06:00,pth,3.60
2023-04-29T07:07:00,pth,2.40
2023-04-29T07:09:00,pth,3.60
2023-04-29T07:11:00,pth,3.60
2023-04-29T07:13:00,pth,2.40
2023-04-29T07:15:00,pth,1.20
2023-04-29T07:17:00,pth,2.40
2023-04-29T07:18:00,pth,1.20
2023-04-29T07:20:00,pth,2.40
2023-04-29T07:23:00,pth,2.40
2023-04-29T07:24:00,pth,1.20
2023-04-29T07:26:00,pth,1.20
2023-04-29T07:28:00,pth,2.40
2023-04-29T07:30:00,pth,1.20
2023-04-29T07:32:00,pth,2.40
2023-04-29T07:33:00,pth,1.20
2023-04-29T07:35:00,pth,1.20
2023-04-29T07:37:00,pth,2.40
2023-04-29T07:38:00,pth,1.20
2023-04-29T07:40:00,pth,2.40
2023-04-29T07:42:00,pth,3.60
2023-04-29T07:43:00,pth,2.40
2023-04-29T07:45:00,pth,3.60
2023-04-29T07:46:00,pth,2.40
2023-04-29T07:47:00,pth,2.40
2023-04-29T07:49:00,pth,1.20
2023-04-29T07:51:00,pth,2.40
2023-04-29T07:52:00,pth,1.20
2023-04-29T07:54:00,pth,2.40
2023-04-29T07:57:00,pth,2.40
2023-04-29T07:59:00,pth,1.20
2023-04-29T08:00:00,pth,1.20
2023-04-29T08:02:00,pth,2.40
2023-04-29T08:04:00,pth,1.20
2023-04-29T08:05:00,pth,1.20
2023-04-29T08:06:00,pth,1.20
2023-04-29T08:08:00,pth,1.20
2023-04-29T08:10:00,pth,2.40
2023-04-29T08:12:00,pth,1.20
2023-04-29T08:14:00,pth,2.40
2023-04-29T08:16:00,pth,1.20
2023-04-29T08:18:00,pth,3.60
2023-04-29T08:20:00,pth,3.60
2023-04-29T08:22:00,pth,3.60
2023-04-29T08:24:00,pth,2.40
2023-04-29T08:26:00,pth,1.20
2023-04-29T08:28:00,pth,1.20
2023-04-29T08:30:00,pth,2.40
2023-04-29T08:32:00,pth,1.20
2023-04-29T08:33:00,pth,1.20
2023-04-29T08:35:00,pth,1.20
2023-04-29T08:36:00,pth,1.20
2023-04-29T08:38:00,pth,2.40
2023-04-29T08:39:00,pth,1.20
2023-04-29T08:40:00,pth,1.20
2023-04-29T08:42:00,pth,1.20
2023-04-29T08:44:00,pth,1.20
2023-04-29T08:46:00,pth,1.20
2023-04-29T08:48:00,pth,2.40
2023-04-29T08:50:00,pth,1.20
2023-04-29T08:52:00,pth,1.20
2023-04-29T08:54:00,pth,2.40
2023-04-29T08:55:00,pth,2.40
2023-04-29T08:56:00,pth,1.20
2023-04-29T08:57:00,pth,2.40
2023-04-29T08:59:00,pth,3.60
2023-04-29T09:01:00,pth,1.20
2023-04-29T09:03:00,pth,1.20
2023-04-29T09:05:00,pth,1.20
2023-04-29T09:06:00,pth,1.20
2023-04-29T09:08:00,pth,1.20
2023-04-29T09:10:00,pth,1.19
2023-04-29T09:11:00,pth,1.20
2023-04-29T09:13:00,pth,2.40
2023-04-29T09:14:00,pth,1.20
2023-04-29T09:16:00,pth,1.20
2023-04-29T09:18:00,pth,2.40
2023-04-29T09:19:00,pth,1.20
2023-04-29T09:21:00,pth,2.40
2023-04-29T09:24:00,pth,2.40
2023-04-29T09:27:00,pth,2.40
2023-04-29T09:29:00,pth,1.20
2023-04-29T09:30:00,pth,1.20
2023-04-29T09:32:00,pth,2.40
2023-04-29T09:34:00,pth,2.40
2023-04-29T09:35:00,pth,2.40
2023-04-29T09:37:00,pth,3.60
2023-04-29T09:39:00,pth,2.40
2023-04-29T09:40:00,pth,1.20
2023-04-29T09:42:00,pth,1.20
2023-04-29T09:44:00,pth,1.20
2023-04-29T09:45:00,pth,1.19
2023-04-29T09:47:00,pth,1.20
2023-04-29T09:49:00,pth,1.20
2023-04-29T09:51:00,pth,2.40
2023-04-29T09:52:00,pth,1.20
2023-04-29T09:55:00,pth,2.40
2023-04-29T09:57:00,pth,1.20
2023-04-29T09:58:00,pth,1.20
2023-04-29T10:00:00,pth,1.20
2023-04-29T10:03:00,pth,1.20
2023-04-29T10:04:00,pth,1.20
2023-04-29T10:07:00,pth,2.40
2023-04-29T10:09:00,pth,1.20
2023-04-29T10:11:00,pth,1.20
2023-04-29T10:12:00,pth,2.40
2023-04-29T10:13:00,pth,1.19
2023-04-29T10:15:00,pth,3.60
2023-04-29T10:17:00,pth,4.80
2023-04-29T10:19:00,pth,3.60
2023-04-29T10:20:00,pth,2.40
2023-04-29T10:22:00,pth,3.60
2023-04-29T10:23:00,pth,1.20
2023-04-29T10:25:00,pth,3.60
2023-04-29T10:27:00,pth,3.60
2023-04-29T10:28:00,pth,1.20
2023-04-29T10:29:00,pth,1.20
2023-04-29T10:31:00,pth,3.60
2023-04-29T10:32:00,pth,1.20
2023-04-29T10:34:00,pth,2.40
2023-04-29T10:36:00,pth,3.60
2023-04-29T10:38:00,pth,2.40
2023-04-29T10:40:00,pth,2.40
2023-04-29T10:42:00,pth,3.60
2023-04-29T10:43:00,pth,1.20
2023-04-29T10:45:00,pth,3.60
2023-04-29T10:46:00,pth,1.20
2023-04-29T10:47:00,pth,1.20
2023-04-29T10:49:00,pth,3.60
2023-04-29T10:51:00,pth,3.60
2023-04-29T10:52:00,pth,2.40
2023-04-29T10:53:00,pth,2.40
2023-04-29T10:55:00,pth,4.80
2023-04-29T10:56:00,pth,2.40
2023-04-29T10:58:00,pth,3.60
2023-04-29T10:59:00,pth,1.20
2023-04-29T11:01:00,pth,1.20
2023-04-29T11:03:00,pth,3.60
2023-04-29T11:04:00,pth,1.20
2023-04-29T11:06:00,pth,2.40
2023-04-29T11:07:00,pth,1.20
2023-04-29T11:09:00,pth,2.40
2023-04-29T11:10:00,pth,1.20
2023-04-29T11:12:00,pth,2.40
2023-04-29T11:14:00,pth,2.40
2023-04-29T11:15:00,pth,1.20
2023-04-29T11:16:00,pth,1.20
2023-04-29T11:17:00,pth,1.20
2023-04-29T11:19:00,pth,2.40
2023-04-29T11:20:00,pth,1.20
2023-04-29T11:21:00,pth,1.19
2023-04-29T11:23:00,pth,2.40
2023-04-29T11:25:00,pth,1.20
2023-04-29T11:27:00,pth,2.40
2023-04-29T11:28:00,pth,1.19
2023-04-29T11:30:00,pth,3.60
2023-04-29T11:31:00,pth,1.20
2023-04-29T11:32:00,pth,1.20
2023-04-29T11:34:00,pth,3.60
2023-04-29T11:36:00,pth,4.80
2023-04-29T11:38:00,pth,4.80
2023-04-29T11:39:00,pth,1.20
2023-04-29T11:40:00,pth,2.40
2023-04-29T11:42:00,pth,3.60
2023-04-29T11:43:00,pth,1.20
2023-04-29T11:45:00,pth,2.40
2023-04-29T11:47:00,pth,2.40
2023-04-29T11:48:00,pth,1.20
2023-04-29T11:50:00,pth,2.40
2023-04-29T11:51:00,pth,1.19
2023-04-29T11:52:00,pth,1.20
2023-04-29T11:54:00,pth,2.40
2023-04-29T11:55:00,pth,2.40
2023-04-29T11:56:00,pth,1.19
2023-04-29T11:57:00,pth,1.20
2023-04-29T11:59:00,pth,3.60
2023-04-29T12:01:00,pth,2.40
2023-04-29T12:02:00,pth,2.40
2023-04-29T12:04:00,pth,1.20
2023-04-29T12:05:00,pth,1.20
2023-04-29T12:06:00,pth,1.20
2023-04-29T12:08:00,pth,2.40
2023-04-29T12:09:00,pth,1.20
2023-04-29T12:11:00,pth,3.60
2023-04-29T12:12:00,pth,1.20
2023-04-29T12:13:00,pth,1.19
2023-04-29T12:14:00,pth,1.20
2023-04-29T12:16:00,pth,2.40
2023-04-29T12:17:00,pth,1.20
2023-04-29T12:18:00,pth,1.20
2023-04-29T12:20:00,pth,1.19
2023-04-29T12:22:00,pth,2.40
2023-04-29T12:23:00,pth,1.20
2023-04-29T12:24:00,pth,2.40
2023-04-29T12:26:00,pth,4.80
2023-04-29T12:28:00,pth,3.60
2023-04-29T12:30:00,pth,2.40
2023-04-29T12:32:00,pth,2.40
2023-04-29T12:33:00,pth,1.20
2023-04-29T12:35:00,pth,1.20
2023-04-29T12:36:00,pth,1.19
2023-04-29T12:37:00,pth,4.80
2023-04-29T12:39:00,pth,13.20
2023-04-29T12:41:00,pth,14.40
2023-04-29T12:42:00,pth,6.00
2023-04-29T12:43:00,pth,7.20
2023-04-29T12:45:00,pth,13.21
2023-04-29T12:47:00,pth,13.20
2023-04-29T12:48:00,pth,7.20
2023-04-29T12:49:00,pth,7.20
2023-04-29T12:50:00,pth,6.00
2023-04-29T12:52:00,pth,13.20
2023-04-29T12:54:00,pth,14.40
2023-04-29T12:55:00,pth,6.01
2023-04-29T12:56:00,pth,7.20
2023-04-29T12:58:00,pth,14.40
2023-04-29T13:00:00,pth,15.60
2023-04-29T13:02:00,pth,15.60
2023-04-29T13:04:00,pth,14.40
2023-04-29T13:06:00,pth,14.40
2023-04-29T13:08:00,pth,13.20
2023-04-29T13:10:00,pth,13.20
2023-04-29T13:12:00,pth,12.00
2023-04-29T13:13:00,pth,6.00
2023-04-29T13:15:00,pth,13.20
2023-04-29T13:16:00,pth,7.20
2023-04-29T13:17:00,pth,6.00
2023-04-29T13:19:00,pth,12.00
2023-04-29T13:21:00,pth,8.40
2023-04-29T13:22:00,pth,6.00
2023-04-29T13:24:00,pth,7.20
2023-04-29T13:25:00,pth,4.80
2023-04-29T13:27:00,pth,7.20
2023-04-29T13:28:00,pth,1.20
2023-04-29T13:30:00,pth,2.40
2023-04-29T13:33:00,pth,2.40
2023-04-29T13:35:00,pth,3.60
2023-04-29T13:36:00,pth,2.40
2023-04-29T13:38:00,pth,3.60
2023-04-29T13:40:00,pth,3.60
2023-04-29T13:42:00,pth,1.20
2023-04-29T13:43:00,pth,1.19
2023-04-29T13:45:00,pth,1.20
2023-04-29T13:47:00,pth,2.40
2023-04-29T13:49:00,pth,2.40
2023-04-29T13:51:00,pth,2.40
2023-04-29T13:53:00,pth,1.20
2023-04-29T13:54:00,pth,1.20
2023-04-29T13:55:00,pth,1.20
2023-04-29T13:57:00,pth,2.40
2023-04-29T13:59:00,pth,2.40
2023-04-29T14:00:00,pth,1.20
2023-04-29T14:02:00,pth,1.20
2023-04-29T14:04:00,pth,2.40
2023-04-29T14:05:00,pth,1.20
2023-04-29T14:06:00,pth,1.20
2023-04-29T14:08:00,pth,2.40
2023-04-29T14:11:00,pth,2.40
2023-04-29T14:12:00,pth,1.19
2023-04-29T14:13:00,pth,1.20
2023-04-29T14:15:00,pth,1.20
2023-04-29T14:16:00,pth,1.20
2023-04-29T14:18:00,pth,2.40
2023-04-29T14:20:00,pth,3.60
2023-04-29T14:21:00,pth,2.40
2023-04-29T14:22:00,pth,2.40
2023-04-29T14:24:00,pth,4.80
2023-04-29T14:25:00,pth,1.20
2023-04-29T14:27:00,pth,2.40
2023-04-29T14:28:00,pth,1.20
2023-04-29T14:30:00,pth,1.20
2023-04-29T14:31:00,pth,1.20
2023-04-29T14:33:00,pth,2.40
2023-04-29T14:36:00,pth,2.40
2023-04-29T14:38:00,pth,2.40
2023-04-29T14:39:00,pth,1.20
2023-04-29T14:41:00,pth,2.40
2023-04-29T14:42:00,pth,1.20
2023-04-29T14:44:00,pth,1.20
2023-04-29T14:46:00,pth,2.40
2023-04-29T14:49:00,pth,2.40
2023-04-29T14:51:00,pth,2.40
2023-04-29T14:52:00,pth,1.20
2023-04-29T14:54:00,pth,1.20
2023-04-29T14:55:00,pth,1.20
2023-04-29T14:57:00,pth,1.19
2023-04-29T14:58:00,pth,1.20
2023-04-29T14:59:00,pth,1.20
2023-04-29T15:01:00,pth,2.40
2023-04-29T15:02:00,pth,2.40
2023-04-29T15:04:00,pth,3.60
2023-04-29T15:06:00,pth,4.80
2023-04-29T15:07:00,pth,2.40
2023-04-29T15:09:00,pth,2.40
2023-04-29T15:10:00,pth,1.20
2023-04-29T15:12:00,pth,2.40
2023-04-29T15:14:00,pth,2.40
2023-04-29T15:16:00,pth,1.20
2023-04-29T15:18:00,pth,1.20
2023-04-29T15:19:00,pth,1.19
2023-04-29T15:21:00,pth,2.40
2023-04-29T15:22:00,pth,1.20
2023-04-29T15:24:00,pth,1.20
2023-04-29T15:26:00,pth,2.40
2023-04-29T15:28:00,pth,1.19
2023-04-29T15:29:00,pth,1.20
2023-04-29T15:31:00,pth,2.40
2023-04-29T15:33:00,pth,1.20
2023-04-29T15:35:00,pth,2.40
2023-04-29T15:37:00,pth,2.40
2023-04-29T15:39:00,pth,2.40
2023-04-29T15:41:00,pth,3.60
2023-04-29T15:42:00,pth,2.40
2023-04-29T15:44:00,pth,4.80
2023-04-29T15:45:00,pth,1.20
2023-04-29T15:47:00,pth,3.60
2023-04-29T15:48:00,pth,1.20
2023-04-29T15:50:00,pth,1.19
2023-04-29T15:51:00,pth,1.20
2023-04-29T15:53:00,pth,1.20
2023-04-29T15:55:00,pth,2.40
2023-04-29T15:56:00,pth,1.20
2023-04-29T15:58:00,pth,2.40
2023-04-29T16:00:00,pth,3.60
2023-04-29T16:01:00,pth,1.20
2023-04-29T16:02:00,pth,1.19
2023-04-29T16:04:00,pth,2.40
2023-04-29T16:05:00,pth,1.20
2023-04-29T16:06:00,pth,1.20
2023-04-29T16:07:00,pth,1.20
2023-04-29T16:09:00,pth,2.40
2023-04-29T16:11:00,pth,2.40
2023-04-29T16:12:00,pth,1.20
2023-04-29T16:14:00,pth,2.40
2023-04-29T16:15:00,pth,1.19
2023-04-29T16:17:00,pth,2.40
2023-04-29T16:19:00,pth,2.40
2023-04-29T16:21:00,pth,2.40
2023-04-29T16:23:00,pth,3.60
2023-04-29T16:24:00,pth,2.40
2023-04-29T16:25:00,pth,2.40
2023-04-29T16:27:00,pth,6.00
2023-04-29T16:29:00,pth,6.01
2023-04-29T16:31:00,pth,2.40
2023-04-29T16:32:00,pth,1.20
2023-04-29T16:33:00,pth,2.40
2023-04-29T16:35:00,pth,3.60
2023-04-29T16:37:00,pth,2.40
2023-04-29T16:39:00,pth,3.60
2023-04-29T16:40:00,pth,1.19
2023-04-29T16:42:00,pth,2.40
2023-04-29T16:43:00,pth,1.20
2023-04-29T16:45:00,pth,3.60
2023-04-29T16:47:00,pth,2.40
2023-04-29T16:49:00,pth,2.40
2023-04-29T16:51:00,pth,2.40
2023-04-29T16:52:00,pth,1.19
2023-04-29T16:54:00,pth,2.40
2023-04-29T16:56:00,pth,2.40
2023-04-29T16:58:00,pth,2.40
2023-04-29T16:59:00,pth,1.20
2023-04-29T17:01:00,pth,2.40
2023-04-29T17:04:00,pth,2.40
2023-04-29T17:06:00,pth,2.40
2023-04-29T17:08:00,pth,3.60
2023-04-29T17:10:00,pth,3.60
2023-04-29T17:12:00,pth,4.80
2023-04-29T17:13:00,pth,4.80
2023-04-29T17:15:00,pth,19.20
2023-04-29T17:16:00,pth,8.40
2023-04-29T17:18:00,pth,18.00
2023-04-29T17:19:00,pth,9.60
2023-04-29T17:21:00,pth,19.20
2023-04-29T17:22:00,pth,8.40
2023-04-29T17:23:00,pth,9.60
2023-04-29T17:25:00,pth,15.60
2023-04-29T17:27:00,pth,13.20
2023-04-29T17:28:00,pth,6.00
2023-04-29T17:29:00,pth,8.40
2023-04-29T17:31:00,pth,18.00
2023-04-29T17:32:00,pth,9.59
2023-04-29T17:33:00,pth,6.00
2023-04-29T17:35:00,pth,14.41
2023-04-29T17:37:00,pth,15.59
2023-04-29T17:39:00,pth,16.80
2023-04-29T17:41:00,pth,14.40
2023-04-29T17:43:00,pth,14.40
2023-04-29T17:45:00,pth,19.20
2023-04-29T17:47:00,pth,20.40
2023-04-29T17:49:00,pth,18.00
2023-04-29T17:51:00,pth,19.20
2023-04-29T17:52:00,pth,8.40
2023-04-29T17:54:00,pth,18.00
2023-04-29T17:56:00,pth,18.00
2023-04-29T17:58:00,pth,16.80
2023-04-29T18:00:00,pth,18.00
2023-04-29T18:02:00,pth,16.79
2023-04-29T18:04:00,pth,16.80
2023-04-29T18:05:00,pth,7.20
2023-04-29T18:07:00,pth,13.20
2023-04-29T18:08:00,pth,7.20
2023-04-29T18:10:00,pth,12.00
2023-04-29T18:11:00,pth,3.60
2023-04-29T18:13:00,pth,4.80
2023-04-29T18:15:00,pth,2.40
2023-04-29T18:17:00,pth,6.01
2023-04-29T18:19:00,pth,4.80
2023-04-29T18:20:00,pth,1.20
2023-04-29T18:22:00,pth,6.00
2023-04-29T18:23:00,pth,2.40
2023-04-29T18:25:00,pth,4.80
2023-04-29T18:26:00,pth,2.40
2023-04-29T18:28:00,pth,4.80
2023-04-29T18:29:00,pth,6.00
2023-04-29T18:30:00,pth,7.20
2023-04-29T18:32:00,pth,13.21
2023-04-29T18:34:00,pth,13.20
2023-04-29T18:35:00,pth,9.60
2023-04-29T18:36:00,pth,8.39
2023-04-29T18:37:00,pth,8.40
2023-04-29T18:39:00,pth,15.60
2023-04-29T18:40:00,pth,8.40
2023-04-29T18:41:00,pth,6.00
2023-04-29T18:43:00,pth,9.60
2023-04-29T18:44:00,pth,7.20
2023-04-29T18:45:00,pth,7.20
2023-04-29T18:47:00,pth,13.20
2023-04-29T18:49:00,pth,13.21
2023-04-29T18:51:00,pth,10.80
2023-04-29T18:52:00,pth,8.40
2023-04-29T18:53:00,pth,6.00
2023-04-29T18:54:00,pth,3.60
2023-04-29T18:56:00,pth,14.40
2023-04-29T18:57:00,pth,4.80
2023-04-29T18:59:00,pth,18.00
2023-04-29T19:00:00,pth,4.80
2023-04-29T19:01:00,pth,7.20
2023-04-29T19:03:00,pth,13.20
2023-04-29T19:05:00,pth,18.00
2023-04-29T19:06:00,pth,2.40
2023-04-29T19:07:00,pth,7.20
2023-04-29T19:09:00,pth,10.80
2023-04-29T19:11:00,pth,15.60
2023-04-29T19:13:00,pth,13.20
2023-04-29T19:15:00,pth,7.20
2023-04-29T19:17:00,pth,12.00
2023-04-29T19:19:00,pth,15.60
2023-04-29T19:20:00,pth,2.40
2023-04-29T19:21:00,pth,7.21
2023-04-29T19:23:00,pth,13.20
2023-04-29T19:25:00,pth,13.20
2023-04-29T19:26:00,pth,3.60
2023-04-29T19:28:00,pth,8.39
2023-04-29T19:29:00,pth,3.60
2023-04-29T19:31:00,pth,3.60
2023-04-29T19:32:00,pth,1.20
2023-04-29T19:33:00,pth,2.40
2023-04-29T19:35:00,pth,6.00
2023-04-29T19:36:00,pth,1.20
2023-04-29T19:38:00,pth,3.60
2023-04-29T19:40:00,pth,9.59
2023-04-29T19:42:00,pth,4.80
2023-04-29T19:43:00,pth,1.19
2023-04-29T19:45:00,pth,9.60
2023-04-29T19:46:00,pth,2.40
2023-04-29T19:47:00,pth,1.20
2023-04-29T19:49:00,pth,3.60
2023-04-29T19:50:00,pth,4.80
2023-04-29T19:52:00,pth,4.80
2023-04-29T19:53:00,pth,1.20
2023-04-29T19:54:00,pth,1.20
2023-04-29T19:55:00,pth,2.40
2023-04-29T19:56:00,pth,4.80
2023-04-29T19:58:00,pth,3.60
2023-04-29T20:00:00,pth,4.80
2023-04-29T20:01:00,pth,1.19
2023-04-29T20:03:00,pth,3.60
2023-04-29T20:04:00,pth,1.20
2023-04-29T20:06:00,pth,2.40
2023-04-29T20:09:00,pth,4.80
2023-04-29T20:10:00,pth,1.20
2023-04-29T20:12:00,pth,2.40
2023-04-29T20:13:00,pth,1.20
2023-04-29T20:15:00,pth,2.40
2023-04-29T20:17:00,pth,2.40
2023-04-29T20:18:00,pth,1.20
2023-04-29T20:20:00,pth,2.40
2023-04-29T20:21:00,pth,1.20
2023-04-29T20:23:00,pth,2.40
2023-04-29T20:24:00,pth,1.19
2023-04-29T20:26:00,pth,2.40
2023-04-29T20:27:00,pth,2.40
2023-04-29T20:28:00,pth,1.20
2023-04-29T20:30:00,pth,3.60
2023-04-29T20:32:00,pth,4.80
2023-04-29T20:33:00,pth,3.60
2023-04-29T20:34:00,pth,3.60
2023-04-29T20:36:00,pth,4.80
2023-04-29T20:37:00,pth,2.40
2023-04-29T20:39:00,pth,4.80
2023-04-29T20:41:00,pth,6.00
2023-04-29T20:43:00,pth,6.00
2023-04-29T20:44:00,pth,2.40
2023-04-29T20:46:00,pth,4.80
2023-04-29T20:48:00,pth,2.40
2023-04-29T20:50:00,pth,3.60
2023-04-29T20:51:00,pth,1.19
2023-04-29T20:52:00,pth,1.20
2023-04-29T20:53:00,pth,1.20
2023-04-29T20:55:00,pth,2.40
2023-04-29T20:57:00,pth,3.60
2023-04-29T20:58:00,pth,1.20
2023-04-29T21:00:00,pth,2.40
2023-04-29T21:02:00,pth,2.40
2023-04-29T21:03:00,pth,1.20
2023-04-29T21:04:00,pth,2.40
2023-04-29T21:06:00,pth,2.40
2023-04-29T21:07:00,pth,1.19
2023-04-29T21:09:00,pth,3.60
2023-04-29T21:10:00,pth,1.20
2023-04-29T21:11:00,pth,1.20
2023-04-29T21:13:00,pth,3.60
2023-04-29T21:14:00,pth,2.40
2023-04-29T21:16:00,pth,3.60
2023-04-29T21:18:00,pth,4.80
2023-04-29T21:19:00,pth,2.40
2023-04-29T21:21:00,pth,3.60
2023-04-29T21:23:00,pth,2.40
2023-04-29T21:24:00,pth,1.19
2023-04-29T21:26:00,pth,2.40
2023-04-29T21:28:00,pth,2.40
2023-04-29T21:29:00,pth,1.20
2023-04-29T21:31:00,pth,3.60
2023-04-29T21:32:00,pth,1.20
2023-04-29T21:34:00,pth,3.60
2023-04-29T21:35:00,pth,2.40
2023-04-29T21:37:00,pth,4.80
2023-04-29T21:38:00,pth,2.40
2023-04-29T21:40:00,pth,2.40
2023-04-29T21:41:00,pth,2.40
2023-04-29T21:43:00,pth,2.40
2023-04-29T21:44:00,pth,1.20
2023-04-29T21:46:00,pth,3.60
2023-04-29T21:47:00,pth,1.20
2023-04-29T21:49:00,pth,3.60
2023-04-29T21:51:00,pth,3.60
2023-04-29T21:53:00,pth,2.40
2023-04-29T21:55:00,pth,4.80
2023-04-29T21:57:00,pth,4.80
2023-04-29T21:59:00,pth,6.00
2023-04-29T22:01:00,pth,4.80
2023-04-29T22:02:00,pth,2.40
2023-04-29T22:03:00,pth,1.20
2023-04-29T22:05:00,pth,3.60
2023-04-29T22:06:00,pth,2.40
2023-04-29T22:07:00,pth,1.20
2023-04-29T22:09:00,pth,7.20
2023-04-29T22:11:00,pth,8.40
2023-04-29T22:12:00,pth,3.60
2023-04-29T22:13:00,pth,3.60
2023-04-29T22:14:00,pth,3.60
2023-04-29T22:16:00,pth,7.20
2023-04-29T22:18:00,pth,7.20
2023-04-29T22:20:00,pth,6.00
2023-04-29T22:22:00,pth,3.60
2023-04-29T22:24:00,pth,7.20
2023-04-29T22:25:00,pth,3.60
2023-04-29T22:27:00,pth,9.60
2023-04-29T22:28:00,pth,3.60
2023-04-29T22:30:00,pth,9.60
2023-04-29T22:32:00,pth,9.60
2023-04-29T22:34:00,pth,8.39
2023-04-29T22:36:00,pth,7.21
2023-04-29T22:38:00,pth,8.39
2023-04-29T22:40:00,pth,12.00